Year,Month,Day,Hour,Minute,Value (Times are PST for windgust in km/hr)
2014,10,23,00,00,3.20
2014,10,23,00,01,3.20
2014,10,23,00,02,4.80
2014,10,23,00,03,6.40
2014,10,23,00,04,4.80
2014,10,23,00,05,4.80
2014,10,23,00,06,4.80
2014,10,23,00,07,6.40
2014,10,23,00,08,3.20
2014,10,23,00,09,3.20
2014,10,23,00,10,6.40
2014,10,23,00,11,6.40
2014,10,23,00,12,4.80
2014,10,23,00,13,4.80
2014,10,23,00,14,8.10
2014,10,23,00,15,4.80
2014,10,23,00,16,4.80
2014,10,23,00,17,4.80
2014,10,23,00,18,4.80
2014,10,23,00,19,4.80
2014,10,23,00,20,4.80
2014,10,23,00,21,1.60
2014,10,23,00,22,1.60
2014,10,23,00,23,1.60
2014,10,23,00,24,3.20
2014,10,23,00,25,3.20
2014,10,23,00,26,1.60
2014,10,23,00,27,1.60
2014,10,23,00,28,1.60
2014,10,23,00,30,1.60
2014,10,23,00,32,1.60
2014,10,23,00,33,1.60
2014,10,23,00,34,3.20
2014,10,23,00,35,1.60
2014,10,23,00,36,1.60
2014,10,23,00,37,1.60
2014,10,23,00,38,3.20
2014,10,23,00,39,3.20
2014,10,23,00,40,3.20
2014,10,23,00,41,3.20
2014,10,23,00,42,3.20
2014,10,23,00,43,3.20
2014,10,23,00,46,1.60
2014,10,23,00,47,3.20
2014,10,23,00,48,3.20
2014,10,23,00,49,4.80
2014,10,23,00,50,6.40
2014,10,23,00,51,6.40
2014,10,23,00,52,4.80
2014,10,23,00,53,3.20
2014,10,23,00,54,4.80
2014,10,23,00,55,3.20
2014,10,23,00,56,3.20
2014,10,23,00,57,3.20
2014,10,23,00,58,6.40
2014,10,23,00,59,6.40
2014,10,23,01,00,3.20
2014,10,23,01,01,1.60
2014,10,23,01,02,1.60
2014,10,23,01,03,3.20
2014,10,23,01,04,3.20
2014,10,23,01,05,3.20
2014,10,23,01,06,3.20
2014,10,23,01,07,3.20
2014,10,23,01,08,4.80
2014,10,23,01,09,3.20
2014,10,23,01,10,3.20
2014,10,23,01,11,3.20
2014,10,23,01,12,6.40
2014,10,23,01,13,6.40
2014,10,23,01,14,6.40
2014,10,23,01,15,6.40
2014,10,23,01,16,4.80
2014,10,23,01,17,4.80
2014,10,23,01,18,3.20
2014,10,23,01,19,1.60
2014,10,23,01,20,1.60
2014,10,23,01,21,3.20
2014,10,23,01,22,3.20
2014,10,23,01,23,3.20
2014,10,23,01,24,3.20
2014,10,23,01,25,1.60
2014,10,23,01,26,1.60
2014,10,23,01,27,1.60
2014,10,23,01,28,1.60
2014,10,23,01,29,3.20
2014,10,23,01,30,3.20
2014,10,23,01,31,3.20
2014,10,23,01,32,3.20
2014,10,23,01,33,3.20
2014,10,23,01,34,3.20
2014,10,23,01,35,4.80
2014,10,23,01,36,4.80
2014,10,23,01,37,3.20
2014,10,23,01,38,4.80
2014,10,23,01,39,3.20
2014,10,23,01,40,3.20
2014,10,23,01,41,3.20
2014,10,23,01,42,3.20
2014,10,23,01,43,3.20
2014,10,23,01,44,3.20
2014,10,23,01,45,4.80
2014,10,23,01,46,3.20
2014,10,23,01,47,4.80
2014,10,23,01,48,3.20
2014,10,23,01,49,1.60
2014,10,23,01,50,1.60
2014,10,23,01,51,1.60
2014,10,23,01,52,1.60
2014,10,23,01,53,1.60
2014,10,23,01,54,3.20
2014,10,23,01,55,3.20
2014,10,23,01,56,3.20
2014,10,23,01,57,3.20
2014,10,23,01,58,4.80
2014,10,23,01,59,3.20
2014,10,23,02,00,3.20
2014,10,23,02,01,1.60
2014,10,23,02,02,1.60
2014,10,23,02,03,3.20
2014,10,23,02,04,3.20
2014,10,23,02,05,3.20
2014,10,23,02,06,3.20
2014,10,23,02,07,3.20
2014,10,23,02,08,1.60
2014,10,23,02,09,1.60
2014,10,23,02,10,1.60
2014,10,23,02,12,1.60
2014,10,23,02,13,1.60
2014,10,23,02,14,1.60
2014,10,23,02,15,1.60
2014,10,23,02,16,1.60
2014,10,23,02,17,1.60
2014,10,23,02,20,1.60
2014,10,23,02,21,1.60
2014,10,23,02,22,1.60
2014,10,23,02,23,1.60
2014,10,23,02,24,1.60
2014,10,23,02,25,3.20
2014,10,23,02,26,3.20
2014,10,23,02,27,3.20
2014,10,23,02,28,3.20
2014,10,23,02,29,1.60
2014,10,23,02,30,3.20
2014,10,23,02,31,3.20
2014,10,23,02,32,3.20
2014,10,23,02,33,1.60
2014,10,23,02,34,3.20
2014,10,23,02,35,3.20
2014,10,23,02,36,3.20
2014,10,23,02,37,4.80
2014,10,23,02,38,3.20
2014,10,23,02,39,3.20
2014,10,23,02,40,1.60
2014,10,23,02,41,1.60
2014,10,23,02,42,3.20
2014,10,23,02,43,3.20
2014,10,23,02,44,3.20
2014,10,23,02,45,3.20
2014,10,23,02,46,3.20
2014,10,23,02,47,3.20
2014,10,23,02,48,1.60
2014,10,23,02,49,3.20
2014,10,23,02,50,3.20
2014,10,23,02,51,3.20
2014,10,23,02,52,1.60
2014,10,23,02,53,3.20
2014,10,23,02,54,3.20
2014,10,23,02,55,4.80
2014,10,23,02,56,1.60
2014,10,23,02,58,1.60
2014,10,23,02,59,1.60
2014,10,23,03,00,1.60
2014,10,23,03,01,1.60
2014,10,23,03,04,1.60
2014,10,23,03,05,1.60
2014,10,23,03,06,1.60
2014,10,23,03,07,1.60
2014,10,23,03,08,1.60
2014,10,23,03,09,3.20
2014,10,23,03,10,3.20
2014,10,23,03,11,3.20
2014,10,23,03,12,3.20
2014,10,23,03,13,3.20
2014,10,23,03,14,1.60
2014,10,23,03,15,1.60
2014,10,23,03,16,1.60
2014,10,23,03,17,1.60
2014,10,23,03,18,3.20
2014,10,23,03,19,1.60
2014,10,23,03,20,1.60
2014,10,23,03,21,1.60
2014,10,23,03,22,3.20
2014,10,23,03,23,3.20
2014,10,23,03,24,3.20
2014,10,23,03,25,3.20
2014,10,23,03,26,3.20
2014,10,23,03,27,4.80
2014,10,23,03,28,6.40
2014,10,23,03,29,4.80
2014,10,23,03,30,4.80
2014,10,23,03,31,4.80
2014,10,23,03,32,4.80
2014,10,23,03,33,4.80
2014,10,23,03,34,3.20
2014,10,23,03,35,3.20
2014,10,23,03,36,3.20
2014,10,23,03,37,3.20
2014,10,23,03,38,1.60
2014,10,23,03,39,3.20
2014,10,23,03,40,1.60
2014,10,23,03,41,1.60
2014,10,23,03,42,3.20
2014,10,23,03,43,6.40
2014,10,23,03,44,6.40
2014,10,23,03,45,6.40
2014,10,23,03,46,3.20
2014,10,23,03,47,3.20
2014,10,23,03,48,3.20
2014,10,23,03,49,1.60
2014,10,23,03,50,3.20
2014,10,23,03,51,3.20
2014,10,23,03,52,3.20
2014,10,23,03,53,3.20
2014,10,23,03,54,1.60
2014,10,23,03,55,1.60
2014,10,23,03,56,1.60
2014,10,23,03,59,3.20
2014,10,23,04,00,3.20
2014,10,23,04,01,1.60
2014,10,23,04,02,1.60
2014,10,23,04,03,1.60
2014,10,23,04,04,3.20
2014,10,23,04,05,3.20
2014,10,23,04,06,3.20
2014,10,23,04,07,3.20
2014,10,23,04,08,3.20
2014,10,23,04,09,1.60
2014,10,23,04,13,1.60
2014,10,23,04,14,1.60
2014,10,23,04,15,3.20
2014,10,23,04,16,3.20
2014,10,23,04,17,3.20
2014,10,23,04,18,3.20
2014,10,23,04,19,1.60
2014,10,23,04,20,1.60
2014,10,23,04,21,1.60
2014,10,23,04,22,1.60
2014,10,23,04,23,1.60
2014,10,23,04,24,1.60
2014,10,23,04,25,1.60
2014,10,23,04,26,1.60
2014,10,23,04,27,1.60
2014,10,23,04,28,1.60
2014,10,23,04,29,3.20
2014,10,23,04,30,4.80
2014,10,23,04,31,6.40
2014,10,23,04,32,4.80
2014,10,23,04,33,4.80
2014,10,23,04,34,4.80
2014,10,23,04,35,4.80
2014,10,23,04,36,4.80
2014,10,23,04,37,4.80
2014,10,23,04,38,4.80
2014,10,23,04,39,3.20
2014,10,23,04,40,4.80
2014,10,23,04,41,4.80
2014,10,23,04,42,4.80
2014,10,23,04,43,3.20
2014,10,23,04,44,4.80
2014,10,23,04,45,3.20
2014,10,23,04,46,1.60
2014,10,23,04,47,3.20
2014,10,23,04,48,4.80
2014,10,23,04,49,4.80
2014,10,23,04,50,3.20
2014,10,23,04,51,3.20
2014,10,23,04,52,3.20
2014,10,23,04,53,3.20
2014,10,23,04,54,1.60
2014,10,23,04,55,1.60
2014,10,23,04,56,1.60
2014,10,23,04,59,4.80
2014,10,23,05,00,4.80
2014,10,23,05,01,3.20
2014,10,23,05,02,1.60
2014,10,23,05,03,1.60
2014,10,23,05,04,1.60
2014,10,23,05,05,1.60
2014,10,23,05,06,3.20
2014,10,23,05,07,3.20
2014,10,23,05,08,1.60
2014,10,23,05,09,1.60
2014,10,23,05,10,1.60
2014,10,23,05,13,3.20
2014,10,23,05,14,3.20
2014,10,23,05,16,3.20
2014,10,23,05,17,3.20
2014,10,23,05,19,1.60
2014,10,23,05,20,3.20
2014,10,23,05,21,4.80
2014,10,23,05,22,4.80
2014,10,23,05,23,4.80
2014,10,23,05,24,4.80
2014,10,23,05,25,1.60
2014,10,23,05,26,3.20
2014,10,23,05,27,3.20
2014,10,23,05,28,3.20
2014,10,23,05,29,1.60
2014,10,23,05,30,4.80
2014,10,23,05,31,4.80
2014,10,23,05,32,3.20
2014,10,23,05,33,3.20
2014,10,23,05,34,4.80
2014,10,23,05,35,4.80
2014,10,23,05,36,3.20
2014,10,23,05,37,3.20
2014,10,23,05,38,1.60
2014,10,23,05,39,1.60
2014,10,23,05,40,4.80
2014,10,23,05,41,3.20
2014,10,23,05,42,3.20
2014,10,23,05,43,3.20
2014,10,23,05,44,3.20
2014,10,23,05,45,4.80
2014,10,23,05,46,4.80
2014,10,23,05,47,4.80
2014,10,23,05,48,3.20
2014,10,23,05,49,3.20
2014,10,23,05,50,1.60
2014,10,23,05,51,4.80
2014,10,23,05,52,4.80
2014,10,23,05,53,3.20
2014,10,23,05,54,1.60
2014,10,23,05,55,1.60
2014,10,23,05,56,1.60
2014,10,23,05,57,1.60
2014,10,23,05,58,1.60
2014,10,23,05,59,1.60
2014,10,23,06,00,3.20
2014,10,23,06,01,1.60
2014,10,23,06,02,3.20
2014,10,23,06,03,3.20
2014,10,23,06,04,3.20
2014,10,23,06,06,3.20
2014,10,23,06,07,3.20
2014,10,23,06,08,4.80
2014,10,23,06,09,3.20
2014,10,23,06,10,6.40
2014,10,23,06,11,6.40
2014,10,23,06,12,3.20
2014,10,23,06,13,3.20
2014,10,23,06,14,4.80
2014,10,23,06,15,3.20
2014,10,23,06,16,3.20
2014,10,23,06,17,3.20
2014,10,23,06,18,3.20
2014,10,23,06,19,3.20
2014,10,23,06,20,3.20
2014,10,23,06,21,3.20
2014,10,23,06,22,3.20
2014,10,23,06,23,3.20
2014,10,23,06,24,3.20
2014,10,23,06,25,3.20
2014,10,23,06,26,3.20
2014,10,23,06,27,1.60
2014,10,23,06,28,1.60
2014,10,23,06,29,1.60
2014,10,23,06,30,1.60
2014,10,23,06,33,1.60
2014,10,23,06,34,1.60
2014,10,23,06,35,3.20
2014,10,23,06,36,3.20
2014,10,23,06,37,3.20
2014,10,23,06,38,1.60
2014,10,23,06,39,1.60
2014,10,23,06,40,1.60
2014,10,23,06,47,1.60
2014,10,23,06,48,1.60
2014,10,23,06,49,3.20
2014,10,23,06,50,3.20
2014,10,23,06,51,3.20
2014,10,23,06,52,3.20
2014,10,23,06,53,3.20
2014,10,23,06,54,3.20
2014,10,23,06,55,3.20
2014,10,23,06,56,1.60
2014,10,23,06,57,1.60
2014,10,23,07,04,1.60
2014,10,23,07,05,1.60
2014,10,23,07,06,1.60
2014,10,23,07,11,1.60
2014,10,23,07,12,3.20
2014,10,23,07,13,3.20
2014,10,23,07,14,3.20
2014,10,23,07,15,3.20
2014,10,23,07,16,1.60
2014,10,23,07,17,3.20
2014,10,23,07,18,1.60
2014,10,23,07,19,1.60
2014,10,23,07,20,1.60
2014,10,23,07,21,1.60
2014,10,23,07,22,1.60
2014,10,23,07,23,1.60
2014,10,23,07,26,1.60
2014,10,23,07,27,1.60
2014,10,23,07,28,1.60
2014,10,23,07,29,1.60
2014,10,23,07,30,3.20
2014,10,23,07,31,3.20
2014,10,23,07,32,3.20
2014,10,23,07,33,3.20
2014,10,23,07,34,3.20
2014,10,23,07,35,3.20
2014,10,23,07,36,1.60
2014,10,23,07,37,3.20
2014,10,23,07,38,1.60
2014,10,23,07,39,3.20
2014,10,23,07,40,3.20
2014,10,23,07,41,3.20
2014,10,23,07,42,3.20
2014,10,23,07,43,3.20
2014,10,23,07,44,4.80
2014,10,23,07,45,3.20
2014,10,23,07,46,3.20
2014,10,23,07,47,3.20
2014,10,23,07,48,3.20
2014,10,23,07,49,1.60
2014,10,23,07,50,3.20
2014,10,23,07,51,3.20
2014,10,23,07,52,3.20
2014,10,23,07,53,3.20
2014,10,23,07,54,3.20
2014,10,23,07,55,3.20
2014,10,23,07,56,3.20
2014,10,23,07,57,3.20
2014,10,23,07,58,3.20
2014,10,23,07,59,3.20
2014,10,23,08,00,3.20
2014,10,23,08,01,3.20
2014,10,23,08,02,4.80
2014,10,23,08,03,4.80
2014,10,23,08,04,4.80
2014,10,23,08,05,4.80
2014,10,23,08,06,3.20
2014,10,23,08,07,4.80
2014,10,23,08,08,3.20
2014,10,23,08,09,3.20
2014,10,23,08,10,4.80
2014,10,23,08,11,3.20
2014,10,23,08,12,1.60
2014,10,23,08,13,3.20
2014,10,23,08,14,4.80
2014,10,23,08,15,3.20
2014,10,23,08,16,4.80
2014,10,23,08,17,3.20
2014,10,23,08,18,3.20
2014,10,23,08,19,1.60
2014,10,23,08,20,1.60
2014,10,23,08,21,3.20
2014,10,23,08,22,1.60
2014,10,23,08,23,1.60
2014,10,23,08,24,3.20
2014,10,23,08,25,3.20
2014,10,23,08,26,3.20
2014,10,23,08,27,3.20
2014,10,23,08,28,3.20
2014,10,23,08,29,6.40
2014,10,23,08,30,6.40
2014,10,23,08,31,4.80
2014,10,23,08,32,4.80
2014,10,23,08,33,6.40
2014,10,23,08,34,4.80
2014,10,23,08,35,4.80
2014,10,23,08,36,9.60
2014,10,23,08,37,6.40
2014,10,23,08,38,8.10
2014,10,23,08,39,6.40
2014,10,23,08,40,4.80
2014,10,23,08,41,6.40
2014,10,23,08,42,6.40
2014,10,23,08,43,4.80
2014,10,23,08,44,4.80
2014,10,23,08,45,4.80
2014,10,23,08,46,4.80
2014,10,23,08,47,8.10
2014,10,23,08,48,4.80
2014,10,23,08,49,4.80
2014,10,23,08,50,4.80
2014,10,23,08,51,4.80
2014,10,23,08,52,6.40
2014,10,23,08,53,6.40
2014,10,23,08,54,4.80
2014,10,23,08,55,4.80
2014,10,23,08,56,4.80
2014,10,23,08,57,4.80
2014,10,23,08,58,3.20
2014,10,23,08,59,4.80
2014,10,23,09,00,4.80
2014,10,23,09,01,3.20
2014,10,23,09,02,3.20
2014,10,23,09,03,3.20
2014,10,23,09,04,1.60
2014,10,23,09,05,1.60
2014,10,23,09,07,1.60
2014,10,23,09,08,3.20
2014,10,23,09,09,1.60
2014,10,23,09,10,1.60
2014,10,23,09,11,3.20
2014,10,23,09,12,1.60
2014,10,23,09,13,1.60
2014,10,23,09,14,1.60
2014,10,23,09,15,1.60
2014,10,23,09,16,1.60
2014,10,23,09,17,3.20
2014,10,23,09,18,1.60
2014,10,23,09,19,1.60
2014,10,23,09,20,4.80
2014,10,23,09,21,4.80
2014,10,23,09,22,3.20
2014,10,23,09,23,3.20
2014,10,23,09,24,1.60
2014,10,23,09,25,1.60
2014,10,23,09,26,3.20
2014,10,23,09,27,1.60
2014,10,23,09,28,3.20
2014,10,23,09,29,3.20
2014,10,23,09,30,4.80
2014,10,23,09,31,6.40
2014,10,23,09,32,4.80
2014,10,23,09,33,4.80
2014,10,23,09,34,4.80
2014,10,23,09,35,1.60
2014,10,23,09,36,6.40
2014,10,23,09,37,4.80
2014,10,23,09,38,9.60
2014,10,23,09,39,3.20
2014,10,23,09,40,6.40
2014,10,23,09,41,9.60
2014,10,23,09,42,4.80
2014,10,23,09,43,4.80
2014,10,23,09,44,6.40
2014,10,23,09,45,11.30
2014,10,23,09,46,9.60
2014,10,23,09,47,6.40
2014,10,23,09,48,4.80
2014,10,23,09,49,6.40
2014,10,23,09,50,4.80
2014,10,23,09,51,4.80
2014,10,23,09,52,3.20
2014,10,23,09,53,6.40
2014,10,23,09,54,6.40
2014,10,23,09,55,4.80
2014,10,23,09,56,4.80
2014,10,23,09,57,4.80
2014,10,23,09,58,12.90
2014,10,23,09,59,3.20
2014,10,23,10,00,3.20
2014,10,23,10,01,12.90
2014,10,23,10,02,6.40
2014,10,23,10,03,9.60
2014,10,23,10,04,1.60
2014,10,23,10,05,1.60
2014,10,23,10,06,3.20
2014,10,23,10,07,3.20
2014,10,23,10,08,4.80
2014,10,23,10,09,6.40
2014,10,23,10,10,6.40
2014,10,23,10,11,4.80
2014,10,23,10,12,4.80
2014,10,23,10,13,3.20
2014,10,23,10,14,3.20
2014,10,23,10,15,1.60
2014,10,23,10,16,1.60
2014,10,23,10,17,3.20
2014,10,23,10,18,3.20
2014,10,23,10,19,3.20
2014,10,23,10,20,3.20
2014,10,23,10,21,6.40
2014,10,23,10,22,4.80
2014,10,23,10,23,4.80
2014,10,23,10,24,4.80
2014,10,23,10,25,4.80
2014,10,23,10,26,4.80
2014,10,23,10,27,4.80
2014,10,23,10,28,6.40
2014,10,23,10,29,3.20
2014,10,23,10,30,3.20
2014,10,23,10,31,4.80
2014,10,23,10,32,6.40
2014,10,23,10,33,4.80
2014,10,23,10,34,6.40
2014,10,23,10,35,3.20
2014,10,23,10,36,4.80
2014,10,23,10,37,4.80
2014,10,23,10,38,4.80
2014,10,23,10,39,3.20
2014,10,23,10,40,3.20
2014,10,23,10,41,6.40
2014,10,23,10,42,9.60
2014,10,23,10,43,4.80
2014,10,23,10,44,6.40
2014,10,23,10,45,4.80
2014,10,23,10,46,4.80
2014,10,23,10,47,4.80
2014,10,23,10,48,9.60
2014,10,23,10,49,8.10
2014,10,23,10,50,6.40
2014,10,23,10,51,4.80
2014,10,23,10,52,4.80
2014,10,23,10,53,6.40
2014,10,23,10,54,4.80
2014,10,23,10,55,4.80
2014,10,23,10,56,3.20
2014,10,23,10,57,3.20
2014,10,23,10,58,4.80
2014,10,23,10,59,4.80
2014,10,23,11,00,6.40
2014,10,23,11,01,9.60
2014,10,23,11,02,6.40
2014,10,23,11,03,3.20
2014,10,23,11,04,3.20
2014,10,23,11,05,4.80
2014,10,23,11,06,4.80
2014,10,23,11,07,4.80
2014,10,23,11,08,4.80
2014,10,23,11,09,4.80
2014,10,23,11,10,4.80
2014,10,23,11,11,1.60
2014,10,23,11,12,1.60
2014,10,23,11,13,3.20
2014,10,23,11,14,1.60
2014,10,23,11,15,1.60
2014,10,23,11,16,1.60
2014,10,23,11,17,1.60
2014,10,23,11,18,1.60
2014,10,23,11,19,1.60
2014,10,23,11,20,1.60
2014,10,23,11,21,3.20
2014,10,23,11,22,1.60
2014,10,23,11,23,1.60
2014,10,23,11,24,4.80
2014,10,23,11,25,3.20
2014,10,23,11,26,3.20
2014,10,23,11,27,1.60
2014,10,23,11,28,1.60
2014,10,23,11,29,3.20
2014,10,23,11,30,3.20
2014,10,23,11,31,3.20
2014,10,23,11,32,3.20
2014,10,23,11,33,3.20
2014,10,23,11,34,1.60
2014,10,23,11,35,1.60
2014,10,23,11,36,4.80
2014,10,23,11,37,1.60
2014,10,23,11,38,3.20
2014,10,23,11,39,1.60
2014,10,23,11,40,1.60
2014,10,23,11,41,1.60
2014,10,23,11,42,1.60
2014,10,23,11,43,1.60
2014,10,23,11,44,1.60
2014,10,23,11,45,3.20
2014,10,23,11,46,1.60
2014,10,23,11,47,3.20
2014,10,23,11,48,3.20
2014,10,23,11,49,3.20
2014,10,23,11,50,4.80
2014,10,23,11,51,4.80
2014,10,23,11,52,4.80
2014,10,23,11,53,4.80
2014,10,23,11,54,3.20
2014,10,23,11,55,3.20
2014,10,23,11,56,1.60
2014,10,23,11,57,1.60
2014,10,23,11,58,1.60
2014,10,23,11,59,1.60
2014,10,23,12,00,1.60
2014,10,23,12,01,3.20
2014,10,23,12,02,4.80
2014,10,23,12,03,3.20
2014,10,23,12,04,3.20
2014,10,23,12,05,4.80
2014,10,23,12,06,3.20
2014,10,23,12,07,1.60
2014,10,23,12,08,1.60
2014,10,23,12,09,1.60
2014,10,23,12,10,3.20
2014,10,23,12,11,3.20
2014,10,23,12,12,3.20
2014,10,23,12,13,1.60
2014,10,23,12,14,1.60
2014,10,23,12,15,1.60
2014,10,23,12,16,1.60
2014,10,23,12,18,1.60
2014,10,23,12,19,1.60
2014,10,23,12,20,1.60
2014,10,23,12,21,3.20
2014,10,23,12,22,1.60
2014,10,23,12,23,1.60
2014,10,23,12,24,1.60
2014,10,23,12,28,1.60
2014,10,23,12,29,1.60
2014,10,23,12,30,1.60
2014,10,23,12,31,1.60
2014,10,23,12,32,1.60
2014,10,23,12,33,1.60
2014,10,23,12,34,1.60
2014,10,23,12,35,1.60
2014,10,23,12,36,3.20
2014,10,23,12,37,3.20
2014,10,23,12,38,1.60
2014,10,23,12,39,3.20
2014,10,23,12,40,3.20
2014,10,23,12,41,1.60
2014,10,23,12,42,1.60
2014,10,23,12,43,1.60
2014,10,23,12,44,1.60
2014,10,23,12,45,1.60
2014,10,23,12,46,1.60
2014,10,23,12,47,3.20
2014,10,23,12,48,1.60
2014,10,23,12,49,1.60
2014,10,23,12,57,3.20
2014,10,23,12,58,3.20
2014,10,23,12,59,3.20
2014,10,23,13,00,3.20
2014,10,23,13,01,3.20
2014,10,23,13,02,1.60
2014,10,23,13,03,3.20
2014,10,23,13,04,3.20
2014,10,23,13,05,3.20
2014,10,23,13,06,3.20
2014,10,23,13,07,3.20
2014,10,23,13,09,1.60
2014,10,23,13,10,1.60
2014,10,23,13,11,1.60
2014,10,23,13,12,1.60
2014,10,23,13,13,1.60
2014,10,23,13,14,1.60
2014,10,23,13,15,1.60
2014,10,23,13,16,1.60
2014,10,23,13,17,3.20
2014,10,23,13,18,3.20
2014,10,23,13,19,1.60
2014,10,23,13,21,1.60
2014,10,23,13,22,1.60
2014,10,23,13,23,3.20
2014,10,23,13,24,3.20
2014,10,23,13,25,1.60
2014,10,23,13,26,3.20
2014,10,23,13,27,3.20
2014,10,23,13,28,1.60
2014,10,23,13,29,1.60
2014,10,23,13,30,1.60
2014,10,23,13,31,1.60
2014,10,23,13,32,3.20
2014,10,23,13,33,3.20
2014,10,23,13,34,3.20
2014,10,23,13,35,1.60
2014,10,23,13,36,1.60
2014,10,23,13,37,1.60
2014,10,23,13,38,3.20
2014,10,23,13,39,3.20
2014,10,23,13,40,1.60
2014,10,23,13,41,1.60
2014,10,23,13,42,1.60
2014,10,23,13,43,3.20
2014,10,23,13,44,1.60
2014,10,23,13,45,3.20
2014,10,23,13,46,4.80
2014,10,23,13,47,4.80
2014,10,23,13,48,3.20
2014,10,23,13,49,1.60
2014,10,23,13,50,6.40
2014,10,23,13,51,6.40
2014,10,23,13,52,4.80
2014,10,23,13,53,8.10
2014,10,23,13,54,8.10
2014,10,23,13,55,3.20
2014,10,23,13,56,4.80
2014,10,23,13,57,4.80
2014,10,23,13,58,6.40
2014,10,23,13,59,11.30
2014,10,23,14,00,9.60
2014,10,23,14,01,4.80
2014,10,23,14,02,1.60
2014,10,23,14,03,4.80
2014,10,23,14,04,4.80
2014,10,23,14,05,8.10
2014,10,23,14,06,3.20
2014,10,23,14,07,3.20
2014,10,23,14,08,6.40
2014,10,23,14,09,6.40
2014,10,23,14,10,8.10
2014,10,23,14,11,6.40
2014,10,23,14,12,8.10
2014,10,23,14,13,9.60
2014,10,23,14,14,8.10
2014,10,23,14,15,8.10
2014,10,23,14,16,8.10
2014,10,23,14,17,6.40
2014,10,23,14,18,11.30
2014,10,23,14,19,6.40
2014,10,23,14,20,6.40
2014,10,23,14,21,14.50
2014,10,23,14,22,12.90
2014,10,23,14,23,12.90
2014,10,23,14,24,6.40
2014,10,23,14,25,6.40
2014,10,23,14,26,6.40
2014,10,23,14,27,8.10
2014,10,23,14,28,9.60
2014,10,23,14,29,12.90
2014,10,23,14,30,8.10
2014,10,23,14,31,12.90
2014,10,23,14,32,9.60
2014,10,23,14,33,8.10
2014,10,23,14,34,12.90
2014,10,23,14,35,12.90
2014,10,23,14,36,14.50
2014,10,23,14,37,12.90
2014,10,23,14,38,14.50
2014,10,23,14,39,14.50
2014,10,23,14,40,11.30
2014,10,23,14,41,14.50
2014,10,23,14,42,11.30
2014,10,23,14,43,11.30
2014,10,23,14,44,16.10
2014,10,23,14,45,14.50
2014,10,23,14,46,11.30
2014,10,23,14,47,16.10
2014,10,23,14,48,11.30
2014,10,23,14,49,11.30
2014,10,23,14,50,16.10
2014,10,23,14,51,14.50
2014,10,23,14,52,14.50
2014,10,23,14,53,17.70
2014,10,23,14,54,17.70
2014,10,23,14,55,11.30
2014,10,23,14,56,8.10
2014,10,23,14,57,8.10
2014,10,23,14,58,8.10
2014,10,23,14,59,8.10
2014,10,23,15,00,8.10
2014,10,23,15,01,8.10
2014,10,23,15,02,9.60
2014,10,23,15,03,14.50
2014,10,23,15,04,11.30
2014,10,23,15,05,11.30
2014,10,23,15,06,12.90
2014,10,23,15,07,8.10
2014,10,23,15,08,11.30
2014,10,23,15,09,11.30
2014,10,23,15,10,8.10
2014,10,23,15,11,4.80
2014,10,23,15,12,6.40
2014,10,23,15,13,6.40
2014,10,23,15,14,4.80
2014,10,23,15,15,6.40
2014,10,23,15,16,6.40
2014,10,23,15,17,4.80
2014,10,23,15,18,6.40
2014,10,23,15,19,3.20
2014,10,23,15,20,6.40
2014,10,23,15,21,8.10
2014,10,23,15,22,9.60
2014,10,23,15,23,6.40
2014,10,23,15,24,6.40
2014,10,23,15,25,4.80
2014,10,23,15,26,4.80
2014,10,23,15,27,8.10
2014,10,23,15,28,4.80
2014,10,23,15,29,4.80
2014,10,23,15,30,6.40
2014,10,23,15,31,6.40
2014,10,23,15,32,4.80
2014,10,23,15,33,4.80
2014,10,23,15,34,6.40
2014,10,23,15,35,9.60
2014,10,23,15,36,9.60
2014,10,23,15,37,8.10
2014,10,23,15,38,4.80
2014,10,23,15,39,6.40
2014,10,23,15,40,4.80
2014,10,23,15,41,4.80
2014,10,23,15,42,4.80
2014,10,23,15,43,3.20
2014,10,23,15,44,1.60
2014,10,23,15,45,3.20
2014,10,23,15,46,3.20
2014,10,23,15,47,4.80
2014,10,23,15,48,4.80
2014,10,23,15,49,4.80
2014,10,23,15,50,3.20
2014,10,23,15,51,1.60
2014,10,23,15,52,3.20
2014,10,23,15,53,3.20
2014,10,23,15,54,4.80
2014,10,23,15,55,4.80
2014,10,23,15,56,4.80
2014,10,23,15,57,4.80
2014,10,23,15,58,4.80
2014,10,23,15,59,4.80
2014,10,23,16,00,6.40
2014,10,23,16,01,6.40
2014,10,23,16,02,4.80
2014,10,23,16,03,6.40
2014,10,23,16,04,9.60
2014,10,23,16,05,9.60
2014,10,23,16,06,8.10
2014,10,23,16,07,6.40
2014,10,23,16,08,8.10
2014,10,23,16,09,8.10
2014,10,23,16,10,11.30
2014,10,23,16,11,6.40
2014,10,23,16,12,6.40
2014,10,23,16,13,6.40
2014,10,23,16,14,6.40
2014,10,23,16,15,6.40
2014,10,23,16,16,8.10
2014,10,23,16,17,8.10
2014,10,23,16,18,8.10
2014,10,23,16,19,8.10
2014,10,23,16,20,9.60
2014,10,23,16,21,6.40
2014,10,23,16,22,4.80
2014,10,23,16,23,4.80
2014,10,23,16,24,4.80
2014,10,23,16,25,4.80
2014,10,23,16,26,4.80
2014,10,23,16,27,6.40
2014,10,23,16,28,3.20
2014,10,23,16,29,3.20
2014,10,23,16,30,6.40
2014,10,23,16,31,4.80
2014,10,23,16,32,3.20
2014,10,23,16,33,6.40
2014,10,23,16,34,6.40
2014,10,23,16,35,6.40
2014,10,23,16,36,4.80
2014,10,23,16,37,4.80
2014,10,23,16,38,4.80
2014,10,23,16,39,4.80
2014,10,23,16,40,4.80
2014,10,23,16,41,6.40
2014,10,23,16,42,6.40
2014,10,23,16,43,4.80
2014,10,23,16,44,4.80
2014,10,23,16,45,6.40
2014,10,23,16,46,6.40
2014,10,23,16,47,4.80
2014,10,23,16,48,3.20
2014,10,23,16,49,4.80
2014,10,23,16,50,3.20
2014,10,23,16,51,4.80
2014,10,23,16,52,6.40
2014,10,23,16,53,6.40
2014,10,23,16,54,8.10
2014,10,23,16,55,6.40
2014,10,23,16,56,4.80
2014,10,23,16,57,3.20
2014,10,23,16,58,4.80
2014,10,23,16,59,3.20
2014,10,23,17,00,4.80
2014,10,23,17,01,3.20
2014,10,23,17,02,6.40
2014,10,23,17,03,6.40
2014,10,23,17,04,8.10
2014,10,23,17,05,4.80
2014,10,23,17,06,4.80
2014,10,23,17,07,4.80
2014,10,23,17,08,4.80
2014,10,23,17,09,3.20
2014,10,23,17,10,4.80
2014,10,23,17,11,3.20
2014,10,23,17,12,3.20
2014,10,23,17,13,4.80
2014,10,23,17,14,4.80
2014,10,23,17,15,4.80
2014,10,23,17,16,3.20
2014,10,23,17,17,6.40
2014,10,23,17,18,6.40
2014,10,23,17,19,4.80
2014,10,23,17,20,3.20
2014,10,23,17,21,3.20
2014,10,23,17,22,3.20
2014,10,23,17,23,1.60
2014,10,23,17,24,3.20
2014,10,23,17,25,4.80
2014,10,23,17,26,3.20
2014,10,23,17,27,3.20
2014,10,23,17,28,3.20
2014,10,23,17,29,3.20
2014,10,23,17,30,3.20
2014,10,23,17,31,3.20
2014,10,23,17,32,3.20
2014,10,23,17,33,1.60
2014,10,23,17,34,1.60
2014,10,23,17,35,1.60
2014,10,23,17,36,1.60
2014,10,23,17,37,3.20
2014,10,23,17,38,1.60
2014,10,23,17,39,3.20
2014,10,23,17,40,1.60
2014,10,23,17,41,3.20
2014,10,23,17,42,1.60
2014,10,23,17,43,1.60
2014,10,23,17,44,1.60
2014,10,23,17,45,1.60
2014,10,23,17,46,1.60
2014,10,23,17,47,1.60
2014,10,23,17,48,1.60
2014,10,23,17,49,1.60
2014,10,23,17,50,1.60
2014,10,23,18,13,1.60
2014,10,23,18,14,1.60
2014,10,23,18,15,1.60
2014,10,23,18,16,3.20
2014,10,23,18,17,3.20
2014,10,23,18,18,3.20
2014,10,23,18,19,3.20
2014,10,23,18,20,3.20
2014,10,23,18,21,3.20
2014,10,23,18,22,1.60
2014,10,23,18,23,1.60
2014,10,23,18,24,1.60
2014,10,23,18,25,1.60
2014,10,23,18,26,1.60
2014,10,23,18,27,1.60
2014,10,23,18,28,1.60
2014,10,23,18,29,1.60
2014,10,23,18,30,1.60
2014,10,23,18,31,1.60
2014,10,23,18,32,1.60
2014,10,23,18,38,1.60
2014,10,23,18,39,3.20
2014,10,23,18,40,3.20
2014,10,23,18,41,3.20
2014,10,23,18,42,3.20
2014,10,23,18,43,3.20
2014,10,23,18,44,3.20
2014,10,23,18,45,3.20
2014,10,23,18,46,3.20
2014,10,23,18,47,3.20
2014,10,23,18,48,3.20
2014,10,23,18,49,3.20
2014,10,23,18,50,3.20
2014,10,23,18,51,3.20
2014,10,23,18,52,3.20
2014,10,23,18,53,1.60
2014,10,23,18,54,1.60
2014,10,23,18,55,3.20
2014,10,23,18,56,3.20
2014,10,23,18,57,3.20
2014,10,23,18,58,3.20
2014,10,23,18,59,3.20
2014,10,23,19,00,3.20
2014,10,23,19,01,3.20
2014,10,23,19,02,3.20
2014,10,23,19,03,1.60
2014,10,23,19,04,1.60
2014,10,23,19,05,1.60
2014,10,23,19,06,1.60
2014,10,23,19,07,1.60
2014,10,23,19,08,1.60
2014,10,23,19,09,1.60
2014,10,23,19,10,1.60
2014,10,23,19,11,1.60
2014,10,23,19,12,1.60
2014,10,23,19,13,1.60
2014,10,23,19,14,1.60
2014,10,23,19,15,1.60
2014,10,23,19,16,1.60
2014,10,23,19,17,3.20
2014,10,23,19,18,3.20
2014,10,23,19,19,3.20
2014,10,23,19,20,3.20
2014,10,23,19,21,3.20
2014,10,23,19,22,3.20
2014,10,23,19,23,3.20
2014,10,23,19,24,1.60
2014,10,23,19,25,1.60
2014,10,23,19,26,1.60
2014,10,23,19,27,1.60